This is the latest recevied weather packets stored in our database for station/object K9ABJ. If no packets are shown the sender has not sent any weather packets the latest 10 day(s).
| Time | Temp. | Humidity | Pressure | Rain* | Wind** | Luminosity | Snow |
|---|---|---|---|---|---|---|---|
| 1788122436 | 28.33° C | 67% | 1017.3 hPa | 0 mm | - | 443 W/m² | - |
| 1788122132 | 28.89° C | 69% | 1017 hPa | 0 mm | - | 472 W/m² | - |
| 1788121827 | 28.33° C | 68% | 1017.1 hPa | 0 mm | - | 544 W/m² | - |
| 1788121527 | 28.33° C | 70% | 1017.1 hPa | 0 mm | - | 861 W/m² | - |
| 1788121223 | 27.78° C | 69% | 1017.5 hPa | 0 mm | - | 1043 W/m² | - |
| 1788120922 | 28.33° C | 70% | 1017.7 hPa | 0 mm | - | 743 W/m² | - |
| 1788120617 | 28.33° C | 68% | 1017.4 hPa | 0 mm | - | 516 W/m² | - |
| 1788120312 | 27.78° C | 68% | 1017.5 hPa | 0 mm | - | 670 W/m² | - |
| 1788120011 | 28.33° C | 68% | 1017.5 hPa | 0 mm | - | 789 W/m² | - |
| 1788119707 | 28.33° C | 68% | 1017.5 hPa | 0 mm | - | 657 W/m² | - |
| 1788119405 | 27.78° C | 68% | 1017.5 hPa | 0 mm | - | 691 W/m² | - |
| 1788119104 | 28.33° C | 68% | 1017.5 hPa | 0 mm | - | 747 W/m² | - |
| 1788118799 | 27.78° C | 70% | 1017.7 hPa | 0 mm | - | 697 W/m² | - |
| 1788118498 | 27.78° C | 72% | 1017.4 hPa | 0 mm | - | 493 W/m² | - |
| 1788118194 | 27.78° C | 73% | 1017.3 hPa | 0 mm | - | 1193 W/m² | - |
| 1788117889 | 27.22° C | 72% | 1017.4 hPa | 0 mm | - | 1149 W/m² | - |
| 1788117584 | 26.67° C | 76% | 1017.1 hPa | 0 mm | - | 1150 W/m² | - |
| 1788117284 | 26.11° C | 76% | 1017 hPa | 0 mm | - | 331 W/m² | - |
| 1788116979 | 26.67° C | 76% | 1017 hPa | 0 mm | - | 365 W/m² | - |
| 1788116674 | 25.56° C | 78% | 1017 hPa | 0 mm | - | 344 W/m² | - |
| 1788116373 | 25.56° C | 78% | 1017.4 hPa | 0 mm | - | 261 W/m² | - |
| 1788116069 | 25.56° C | 80% | 1017.3 hPa | 0 mm | - | 214 W/m² | - |
| 1788115764 | 25.56° C | 78% | 1017.4 hPa | 0 mm | - | 232 W/m² | - |
| 1788115463 | 25.56° C | 79% | 1017.5 hPa | 0 mm | - | 306 W/m² | - |
| 1788115158 | 25.56° C | 79% | 1017.3 hPa | 0 mm | - | 340 W/m² | - |
* Rain latest hour (hover to see other rain measurements)
** Current wind speed in m/s (hover to see current wind gust speed)